sat.trackr.live / text

‹ back to catalog

FLOCK 4G-29

NORAD 62642 · 2025-009AK

PAYLOAD ACTIVE UNKNOWN

§ Identity

Operator
Country
US
Launch date
2025-01-14
Launch site
AFWTR
Launch vehicle
Mass (kg)
RCS (m²)

Purposes: earth_obs

External: N2YO · Heavens-Above · Gunter

§ Orbital elements

Epoch: 2026-09-19T10:47:46.801536Z

Period
93.91 min
Inclination
97.3952°
Eccentricity
0.0001206
Mean motion
15.33417831 rev/d
Perigee alt
464.8 km
Apogee alt
466.4 km
Semi-major
6,843.8 km
B*
8.9142e-4
RAAN
344.1668°
Arg perigee
284.5750°
Mean anomaly
75.5359°
Rev number
9,332

§ Raw data

FLOCK 4G-291 62642U 25009AK  26262.44984724  .00028787  00000+0  89142-3 0  99942 62642  97.3952 344.1668 0001206 284.5750  75.5359 15.33417831 93326

JSON: /api/v1/satellites/62642 · /tle

For live sub-satellite position, see the globe view (requires WebGL).

§ Visibility from observer

Set your observer location to see the next 7 days of passes ≥ 10°. The values pass through the URL so the page stays shareable.

No JS? Fill the form by hand. The geolocation button needs JavaScript.